DMSP 5D-2 F6 DEB, 40919

Orbit data source: Space-Track

DMSP 5D-2 F6 DEB, 40919 is space debris in SSO originally from a launch on Tue, 21 Dec 1982 UTC launched from the Air Force Western Test Range (AFWTR). Debris objects in space refer to the collection of defunct objects orbiting the Earth. Examples of debris include non-operational satellites, rocket bodies, and fragments generated from explosions, collisions, or faulty payload assembly.

Loading next visibility...
DMSP 5D-2 F6 DEB details
Identifier
40919, 1982-118M
Orbit
SSO
Last TLE update1 day ago
Origin
Flag of USUSAF SMC (US)
ManufacturerUnknown
MissionSpacecraft
Bus & MotorUnknown
MassUnknown
Launch date (UTC)
1982-12-21 (42 years ago)
Launch vehicleUnknown
Launch site
Air Force Western Test Range (AFWTR)
Object type
Payload
Rocket body
Debris
Shape & HBRUnknown
Radar Cross SectionSmall (<0.1 m²)

Expand to show TLE details & history

TLE from 1 day ago
0 DMSP 5D-2 F6 DEB
1 40919U 82118M   24360.05691056  .00057818  00000-0  83829-2 0  9991
2 40919  98.4087 213.6432 0007238 122.5740 237.6168 14.75742256452471
Epoch: 2024-12-25T01:21Z
Definitive object data (Epoch: 2024-12-25T01:21:57.072Z)
Latitude-0.00001°
Longitude99.09927°
Altitude648.521 km
Speed7.532 km/s
True Right ascension14h 14m 34s
True Declination0° 00' 00"
Sunlit
Object was in daylight at TLE epoch
Visualization TLE readout
Latitude71.92166°
Longitude73.75455°
Altitude651.042 km
Speed7.541 km/s
Apparent Right ascension19h 57m 10s
Apparent Declination35° 12' 30"
Sunlit
Object is in daylight
Visualization observer readout
Local Sidereal Time09:35:43
Azimuth20.341° NNE
Elevation-11.518°
Doppler factor1
Orbital elements
Apogee altitude644.946 km
Perigee altitude634.786 km
Semi-major axis7,018.003 km
Eccentricity0.0007238
Inclination98.4087°
RAAN213.6432°
Arg. of periapsis122.574°
True anomaly237.54679°
Mean anomaly237.6168°
Eccentric anomaly237.58179°
Mean motion3.69167 °/min
BSTAR0.0083829
Orbital period97.52 mins
Loading maneuver chart data...
Loading historical data...
Loading historical data...
Loading historical data...
Loading historical data...
Loading historical data...
Loading historical data...
Loading historical data...

DMSP 5D-2 F6 DEB Visibility forecast

Observer location: undefined°, undefined

Span
Click to sort rows by Start time (UTC) header in descending order
Start Az.
Max El. time (UTC)
Max El. Az.
Max El.
End time (UTC)
End Az.
5 mins2024-12-26 13:19:34.130Z100.275° ESE2024-12-26 13:21:34.130Z71.397° E16.201°2024-12-26 13:24:34.130Z26.844° NE
6 mins2024-12-26 14:55:34.130Z198.606° SSW2024-12-26 14:58:34.130Z279.137° WNW33.991°2024-12-26 15:01:34.130Z329.486° NNW
6 mins2024-12-27 02:46:34.130Z46.526° ENE2024-12-27 02:48:34.130Z86.093° E28.103°2024-12-27 02:52:34.130Z160.028° S
5 mins2024-12-27 04:23:34.130Z324.23° NNW2024-12-27 04:25:34.130Z287.168° WNW20.224°2024-12-27 04:28:34.130Z243.77° WSW
|